[[{"header":{"parameterUnit":"m.s-1","parameterCategory":1,"la1":30.2991,"la2":30.254,"lo1":-89.0895,"lo2":-89.0444,"dy":0.0017,"dx":0.0017,"nx":28,"ny":28,"refTime":"2025-04-15T09:00:00:Z","depth":0,"parameterNumber":2,"parameterNumberName":"U-component_of_WINDS"},"data":[0,0,0,0,0,0,0,0,0,0,0,0,0,0,0,0,0,0,0,0,0,0,0,0,0,0,0,0,0,0,0,0,0,0,0,0,0,0,0,0,0,0,0,0,0,0,0,0,0,0,0,0,0,0,0,0,0,0,-0.13,-0.13,0,-0.1304,-0.1304,-0.1304,-0.1282,-0.1282,-0.1281,-0.128,-0.1285,-0.1286,-0.1287,0,0,0,0,0,0,0,0,0,0,0,0,0,-0.1274,-0.1275,-0.13,-0.13,-0.13,-0.1304,-0.1304,-0.1304,-0.1282,-0.1282,-0.1281,-0.128,-0.1285,-0.1286,-0.1287,0,0,0,0,0,0,0,0,0,0,0,0,0,-0.1282,-0.1275,-0.13,-0.129,-0.1289,-0.1304,-0.1304,-0.1304,-0.1283,-0.1282,-0.1281,-0.128,-0.1285,-0.1286,-0.1287,-0.1312,0,0,-0.129,-0.1291,0,0,0,0,0,0,0,0,-0.1282,-0.1283,-0.1291,-0.1291,-0.129,-0.1292,-0.1296,-0.1307,-0.1283,-0.1285,-0.128,-0.1279,-0.1288,-0.1289,-0.1292,-0.1312,-0.1312,-0.129,-0.1291,-0.1291,-0.1292,0,0,0,0,0,0,0,-0.1281,-0.1283,-0.1301,-0.1291,-0.129,-0.1285,-0.1285,-0.1298,-0.1292,-0.1285,-0.1283,-0.1284,-0.1288,-0.1291,-0.1292,-0.1312,-0.129,-0.1291,-0.1292,-0.1292,-0.1352,-0.1353,0,0,0,0,0,0,-0.1282,-0.1283,-0.1301,-0.1302,-0.1283,-0.1286,-0.1286,-0.1292,-0.1292,-0.1291,-0.1285,-0.1283,-0.1289,-0.129,-0.1292,-0.1321,-0.1291,-0.1292,-0.1293,-0.1351,-0.1352,-0.1353,0,0,0,0,0,0,-0.1282,-0.1284,-0.1301,-0.1292,-0.1293,-0.1288,-0.1294,-0.1292,-0.1296,-0.1291,-0.129,-0.1289,-0.1289,-0.129,-0.1307,-0.132,-0.1293,-0.1294,-0.135,-0.1351,-0.1353,-0.1379,0,0,0,0,0,0,-0.1281,-0.1284,-0.1294,-0.1292,-0.1294,-0.1316,-0.1295,-0.1293,-0.1297,-0.1295,-0.1295,-0.1295,-0.1288,-0.1305,-0.1308,-0.1321,-0.1294,-0.1349,-0.1351,-0.1352,-0.1377,-0.1381,-0.1385,0,0,0,0,0,-0.128,-0.1302,-0.1294,-0.1297,-0.1306,-0.1317,-0.1318,-0.131,-0.1299,-0.1308,-0.1305,-0.1295,-0.1318,-0.1307,-0.131,-0.1324,-0.1348,-0.135,-0.1352,-0.1375,-0.138,-0.1385,0,0,0,0,0,0,-0.1306,-0.1301,-0.1293,-0.1315,-0.1316,-0.1314,-0.1326,-0.1316,-0.1322,-0.132,-0.1309,-0.1309,-0.1328,-0.1327,-0.1315,-0.1347,-0.1331,-0.1334,-0.1347,-0.1352,-0.1356,-0.1357,-0.1295,0,0,0,0,0,-0.1314,-0.1323,-0.1319,-0.1338,-0.1339,-0.1332,-0.1337,-0.133,-0.1332,-0.1333,-0.1331,-0.1333,-0.1341,-0.1346,-0.1353,-0.1376,-0.1375,-0.1387,-0.1391,-0.1394,-0.1397,-0.1408,-0.1413,-0.136,-0.136,-0.136,0,0,-0.1331,-0.133,-0.1336,-0.1343,-0.1344,-0.1353,-0.1333,-0.1345,-0.1352,-0.1334,-0.135,-0.1348,-0.135,-0.1369,-0.1378,-0.1369,-0.1411,-0.1397,-0.1399,-0.1401,-0.1411,-0.1416,-0.142,-0.1362,-0.1361,-0.1361,0,0,-0.1368,-0.1367,-0.1383,-0.1383,-0.1384,-0.1379,-0.1383,-0.1381,-0.1379,-0.1394,-0.138,-0.1388,-0.1402,-0.1403,-0.1406,-0.144,-0.143,-0.1442,-0.1464,-0.1475,-0.1479,-0.1482,-0.1495,-0.1499,-0.1445,-0.1445,-0.1445,0,-0.1389,-0.1404,-0.1393,-0.1405,-0.1408,-0.1391,-0.1406,-0.1407,-0.141,-0.1413,-0.1403,-0.1419,-0.1419,-0.1438,-0.1446,-0.1448,-0.1452,-0.1443,-0.1479,-0.1483,-0.1486,-0.1497,-0.1502,-0.1447,-0.1446,-0.1446,-0.1446,0,-0.143,-0.144,-0.1452,-0.1455,-0.1459,-0.1473,-0.1463,-0.1469,-0.1461,-0.1457,-0.1471,-0.147,-0.1476,-0.1479,-0.1472,-0.1497,-0.1492,-0.1481,-0.1464,-0.1493,-0.1503,-0.1508,-0.1449,-0.1448,-0.1448,-0.1447,0,0,-0.1486,-0.148,-0.1485,-0.1485,-0.1483,-0.1491,-0.1503,-0.1508,-0.1513,-0.1514,-0.1525,-0.1535,-0.1524,-0.1527,-0.1519,-0.1529,-0.1555,-0.1516,-0.1516,-0.1524,-0.1582,-0.1592,-0.1597,-0.1548,-0.1549,-0.1549,-0.1582,0,-0.1522,-0.1543,-0.1532,-0.1554,-0.1563,-0.1545,-0.1556,-0.1556,-0.1551,-0.1558,-0.1552,-0.156,-0.1545,-0.1546,-0.1555,-0.1551,-0.1567,-0.1548,-0.1558,-0.1558,-0.1559,-0.1603,-0.1613,-0.1645,-0.1587,-0.1587,-0.1588,0,-0.1567,-0.157,-0.1593,-0.1588,-0.1591,-0.1601,-0.1604,-0.161,-0.1609,-0.1605,-0.1606,-0.1596,-0.1607,-0.1589,-0.1604,-0.1591,-0.1594,-0.1592,-0.1593,-0.1595,-0.1576,-0.1607,-0.1655,-0.166,-0.1594,-0.1594,-0.1593,0,-0.1606,-0.1615,-0.163,-0.1631,-0.1625,-0.1632,-0.163,-0.1628,-0.1631,-0.1633,-0.1635,-0.1639,-0.1641,-0.1644,-0.1634,-0.1622,-0.165,-0.1632,-0.1648,-0.1648,-0.1656,-0.1656,-0.1706,-0.1656,-0.1656,-0.1656,-0.1656,0,-0.1648,-0.1663,-0.1647,-0.1657,-0.1672,-0.1659,-0.1675,-0.1671,-0.1668,-0.1676,-0.1661,-0.1669,-0.1655,-0.1661,-0.1653,-0.1667,-0.1667,-0.1665,-0.1663,-0.1667,-0.1667,-0.167,-0.1668,-0.1657,-0.1657,-0.1657,-0.1656,0,-0.1696,-0.1686,-0.17,-0.1693,-0.1691,-0.1703,-0.1697,-0.1705,-0.1698,-0.1708,-0.171,-0.1699,-0.1705,-0.1695,-0.1701,-0.1695,-0.1714,-0.1708,-0.1715,-0.1714,-0.173,-0.1729,-0.1785,-0.1792,-0.1736,-0.1736,-0.1737,0,-0.1725,-0.1735,-0.1728,-0.1732,-0.1731,-0.1737,-0.174,-0.1726,-0.1729,-0.1727,-0.1736,-0.174,-0.1743,-0.1753,-0.1747,-0.175,-0.1745,-0.1764,-0.1745,-0.1749,-0.1746,-0.1746,-0.1747,-0.1768,-0.1769,-0.177,-0.177,0,-0.1776,-0.177,-0.1774,-0.1776,-0.1779,-0.178,-0.178,-0.1784,-0.1769,-0.1774,-0.1779,-0.1782,-0.1786,-0.1791,-0.1792,-0.1789,-0.1778,-0.1775,-0.1779,-0.1785,-0.1788,-0.1787,-0.1726,-0.1775,-0.1774,-0.1774,-0.1774,-0.1774,-0.1816,-0.1824,-0.182,-0.1825,-0.1823,-0.1822,-0.1829,-0.1822,-0.1827,-0.1829,-0.182,-0.1828,-0.1824,-0.1824,-0.1823,-0.1828,-0.182,-0.1825,-0.1827,-0.1829,-0.1832,-0.1786,-0.1828,-0.1828,-0.1828,-0.1828,-0.1828,0,-0.1868,-0.1863,-0.1868,-0.1867,-0.1871,-0.1857,-0.1856,-0.186,-0.1866,-0.1864,-0.1866,-0.1872,-0.1876,-0.1868,-0.187,-0.1876,-0.187,-0.1877,-0.1877,-0.1877,-0.1839,-0.1836,-0.1881,-0.1881,-0.1881,-0.1881,-0.1881,-0.1881,-0.1895,-0.1908,-0.1901,-0.1913,-0.1908,-0.1915,-0.1915,-0.1915,-0.1912,-0.1919,-0.1922,-0.1916,-0.1911,-0.1913,-0.1915,-0.1913,-0.1915,-0.1924,-0.192,-0.1885,-0.188,-0.1875,-0.1872,-0.1924,-0.1924,-0.1957,-0.1957,-0.1958]},{"header":{"parameterUnit":"m.s-1","parameterCategory":1,"la1":30.2991,"la2":30.254,"lo1":-89.0895,"lo2":-89.0444,"dy":0.0017,"dx":0.0017,"nx":28,"ny":28,"refTime":"2025-04-15T09:00:00:Z","depth":0,"parameterNumber":3,"parameterNumberName":"V-component_of_WINDS"},"data":[0,0,0,0,0,0,0,0,0,0,0,0,0,0,0,0,0,0,0,0,0,0,0,0,0,0,0,0,0,0,0,0,0,0,0,0,0,0,0,0,0,0,0,0,0,0,0,0,0,0,0,0,0,0,0,0,0,0,-3.8594,-3.8594,0,-3.8629,-3.8629,-3.863,-3.8612,-3.8611,-3.861,-3.8609,-3.8641,-3.8643,-3.8644,0,0,0,0,0,0,0,0,0,0,0,0,0,-3.8508,-3.8509,-3.8594,-3.8594,-3.8595,-3.8629,-3.8629,-3.863,-3.8612,-3.8611,-3.861,-3.8609,-3.864,-3.8642,-3.8644,0,0,0,0,0,0,0,0,0,0,0,0,0,-3.8544,-3.851,-3.8594,-3.859,-3.859,-3.8629,-3.8629,-3.863,-3.8612,-3.8611,-3.861,-3.8608,-3.864,-3.8642,-3.8645,-3.8688,0,0,-3.8652,-3.8654,0,0,0,0,0,0,0,0,-3.8542,-3.8547,-3.859,-3.859,-3.859,-3.8615,-3.8611,-3.8649,-3.8613,-3.8604,-3.8609,-3.8608,-3.8633,-3.8636,-3.8646,-3.8689,-3.8691,-3.8653,-3.8654,-3.8655,-3.8656,0,0,0,0,0,0,0,-3.854,-3.8546,-3.8607,-3.8591,-3.8591,-3.8586,-3.8589,-3.8618,-3.8625,-3.8604,-3.8603,-3.8608,-3.8633,-3.8643,-3.8646,-3.8691,-3.8653,-3.8655,-3.8656,-3.8657,-3.8773,-3.8774,0,0,0,0,0,0,-3.8538,-3.8544,-3.8606,-3.8609,-3.8563,-3.8588,-3.8592,-3.8608,-3.8625,-3.8626,-3.8609,-3.8607,-3.8639,-3.8643,-3.8647,-3.8699,-3.8655,-3.8658,-3.8659,-3.8771,-3.8773,-3.8775,0,0,0,0,0,0,-3.8536,-3.8544,-3.8605,-3.8576,-3.8583,-3.8591,-3.8609,-3.861,-3.862,-3.8629,-3.863,-3.8618,-3.8639,-3.8644,-3.8678,-3.87,-3.8659,-3.8661,-3.877,-3.8772,-3.8774,-3.8803,0,0,0,0,0,0,-3.8534,-3.8543,-3.856,-3.8576,-3.8585,-3.8636,-3.8611,-3.8611,-3.8625,-3.8623,-3.8638,-3.8639,-3.8638,-3.8675,-3.8681,-3.8703,-3.8663,-3.8768,-3.8771,-3.8773,-3.88,-3.8806,-3.8811,0,0,0,0,0,-3.8531,-3.8565,-3.8561,-3.8568,-3.8607,-3.8638,-3.8642,-3.8642,-3.8627,-3.8643,-3.8649,-3.8638,-3.8697,-3.8678,-3.8685,-3.8708,-3.8766,-3.877,-3.8773,-3.8798,-3.8805,-3.8811,0,0,0,0,0,0,-3.8549,-3.8567,-3.8562,-3.8604,-3.862,-3.8635,-3.8655,-3.8649,-3.8668,-3.8665,-3.8662,-3.8666,-3.8702,-3.8709,-3.8688,-3.8751,-3.8729,-3.8734,-3.8745,-3.8752,-3.8758,-3.8755,-3.8665,0,0,0,0,0,-3.8558,-3.8583,-3.8598,-3.8633,-3.8641,-3.8647,-3.8661,-3.8659,-3.8675,-3.8681,-3.8689,-3.8703,-3.8725,-3.8739,-3.876,-3.8802,-3.8805,-3.8821,-3.8826,-3.8831,-3.8835,-3.8858,-3.8865,-3.8786,-3.8786,-3.8786,0,0,-3.8576,-3.859,-3.8605,-3.8637,-3.8649,-3.8674,-3.8653,-3.868,-3.8698,-3.8684,-3.8718,-3.8725,-3.8741,-3.878,-3.8797,-3.8786,-3.8858,-3.8835,-3.8839,-3.884,-3.8862,-3.887,-3.8876,-3.8789,-3.8788,-3.8788,0,0,-3.8623,-3.8636,-3.8667,-3.868,-3.87,-3.8704,-3.8712,-3.8728,-3.8733,-3.8768,-3.8758,-3.878,-3.8817,-3.8829,-3.884,-3.8894,-3.8884,-3.8901,-3.8929,-3.8951,-3.8958,-3.8963,-3.8982,-3.8989,-3.8905,-3.8905,-3.8905,0,-3.8642,-3.8681,-3.8683,-3.8712,-3.8726,-3.8718,-3.8749,-3.8761,-3.8785,-3.8795,-3.8783,-3.8831,-3.8841,-3.8883,-3.8896,-3.8906,-3.8914,-3.8898,-3.8957,-3.8962,-3.8968,-3.8986,-3.8993,-3.8907,-3.8907,-3.8906,-3.8906,0,-3.8705,-3.8732,-3.8755,-3.8781,-3.8798,-3.8828,-3.8833,-3.885,-3.8848,-3.8854,-3.8889,-3.8901,-3.8924,-3.8935,-3.8932,-3.8977,-3.8969,-3.8957,-3.8935,-3.8977,-3.8994,-3.9001,-3.8909,-3.8909,-3.8908,-3.8908,0,0,-3.8761,-3.879,-3.8798,-3.8811,-3.8833,-3.8854,-3.8883,-3.8908,-3.8922,-3.894,-3.8964,-3.8998,-3.8988,-3.9,-3.8999,-3.9019,-3.9062,-3.9005,-3.9005,-3.9014,-3.9112,-3.912,-3.9128,-3.9056,-3.9058,-3.9059,-3.911,0,-3.8808,-3.8862,-3.8866,-3.8914,-3.8939,-3.8933,-3.8958,-3.8974,-3.8981,-3.9003,-3.9009,-3.9033,-3.9018,-3.9025,-3.9045,-3.9052,-3.9081,-3.9049,-3.9078,-3.9079,-3.9073,-3.9137,-3.9145,-3.9193,-3.9117,-3.9118,-3.9119,0,-3.887,-3.8893,-3.8944,-3.8964,-3.8975,-3.8998,-3.9022,-3.9043,-3.9062,-3.9065,-3.9081,-3.9077,-3.9107,-3.9085,-3.9126,-3.9104,-3.9117,-3.9122,-3.9124,-3.9125,-3.91,-3.9139,-3.9208,-3.9215,-3.9129,-3.9128,-3.9128,0,-3.8905,-3.8948,-3.8985,-3.8996,-3.9021,-3.9037,-3.9048,-3.9065,-3.9081,-3.9101,-3.9111,-3.9134,-3.9147,-3.9165,-3.9167,-3.9151,-3.9208,-3.9186,-3.9211,-3.9211,-3.9222,-3.9221,-3.9293,-3.9232,-3.9232,-3.9232,-3.9231,0,-3.8957,-3.8989,-3.9001,-3.9024,-3.9059,-3.9063,-3.9097,-3.9107,-3.9123,-3.9146,-3.9142,-3.9164,-3.9167,-3.9189,-3.9192,-3.9225,-3.9231,-3.9234,-3.9234,-3.9234,-3.9233,-3.924,-3.9237,-3.9233,-3.9233,-3.9233,-3.9232,0,-3.9001,-3.9011,-3.9051,-3.9073,-3.9079,-3.9104,-3.9122,-3.9143,-3.915,-3.918,-3.9187,-3.9198,-3.9224,-3.923,-3.926,-3.9262,-3.9302,-3.9299,-3.9296,-3.9295,-3.932,-3.9317,-3.9398,-3.9409,-3.9341,-3.9342,-3.9343,0,-3.9033,-3.9058,-3.9083,-3.91,-3.9112,-3.9138,-3.9155,-3.9161,-3.9178,-3.9202,-3.922,-3.9247,-3.9268,-3.9311,-3.932,-3.9344,-3.9341,-3.9368,-3.9344,-3.9344,-3.9341,-3.9339,-3.9341,-3.9372,-3.9372,-3.9373,-3.9374,0,-3.9088,-3.9093,-3.9118,-3.9145,-3.9166,-3.9187,-3.9207,-3.9221,-3.9229,-3.9248,-3.9277,-3.9294,-3.9327,-3.9353,-3.9377,-3.9387,-3.9381,-3.9382,-3.9388,-3.9388,-3.9385,-3.9386,-3.9308,-3.9379,-3.9378,-3.9378,-3.9378,-3.9377,-3.9127,-3.9149,-3.9171,-3.9199,-3.9216,-3.9236,-3.9257,-3.9269,-3.9293,-3.9321,-3.9323,-3.9354,-3.9373,-3.9406,-3.9417,-3.9441,-3.9432,-3.9442,-3.9444,-3.9446,-3.9449,-3.9383,-3.9445,-3.9445,-3.9445,-3.9445,-3.9445,0,-3.9181,-3.9196,-3.9223,-3.9252,-3.9275,-3.9271,-3.9294,-3.9312,-3.934,-3.9359,-3.9382,-3.9415,-3.9441,-3.9454,-3.948,-3.9496,-3.9494,-3.9502,-3.95,-3.9503,-3.9455,-3.9446,-3.9503,-3.9503,-3.9503,-3.9503,-3.9503,-3.9503,-3.9212,-3.925,-3.9257,-3.9303,-3.9317,-3.9349,-3.9363,-3.9381,-3.9396,-3.9434,-3.9457,-3.9466,-3.9483,-3.951,-3.9534,-3.9537,-3.9546,-3.9556,-3.9557,-3.9512,-3.9506,-3.95,-3.9492,-3.9558,-3.9558,-3.9603,-3.9604,-3.9604]}]]